Date,TemperatureHighF,TemperatureAvgF,TemperatureLowF,DewpointHighF,DewpointAvgF,DewpointLowF,HumidityHigh,HumidityAvg,HumidityLow,PressureMaxIn,PressureMinIn,WindSpeedMaxMPH,WindSpeedAvgMPH,GustSpeedMaxMPH,PrecipitationSumIn
2013-5-1,84.5,78.0,71.3,69.3,65.1,59.5,71,65,50,30.02,29.94,11,6,27,0.00
2013-5-2,82.7,76.8,71.5,72.1,66.3,60.0,79,70,59,30.05,29.98,6,3,14,0.01
2013-5-3,80.5,76.7,72.2,71.4,65.9,57.3,80,70,59,30.04,29.96,8,4,19,0.03
2013-5-4,80.0,75.7,68.5,71.0,68.4,63.6,88,78,70,29.99,29.90,6,3,12,0.15
2013-5-5,79.9,75.6,69.2,71.0,68.5,66.1,91,79,67,29.95,29.86,6,3,13,0.72
2013-5-6,80.1,76.8,71.9,71.4,69.2,66.8,87,77,70,29.96,29.85,7,2,10,0.00
2013-5-7,81.6,77.0,70.5,71.4,68.2,63.5,86,75,65,29.96,29.88,8,4,10,0.00
2013-5-10,85.0,80.0,73.1,74.9,70.9,65.5,81,74,62,30.06,29.96,9,2,16,0.00
2013-5-11,83.2,79.6,76.3,73.4,71.8,68.6,85,77,68,30.05,29.96,6,2,9,0.00
2013-5-12,84.2,79.6,75.8,73.9,70.1,66.0,82,73,64,30.02,29.94,10,5,24,0.01
2013-5-13,83.8,79.2,74.8,73.9,69.8,61.0,80,73,56,30.02,29.95,8,4,21,0.00
2013-5-14,86.5,80.1,74.5,73.3,65.1,58.6,73,61,47,30.07,29.97,9,6,27,0.00
2013-5-15,87.4,79.6,75.7,72.3,66.2,60.1,74,64,44,30.08,30.00,9,4,33,0.00
2013-5-16,90.0,80.3,74.2,71.8,65.5,57.1,70,62,33,30.08,29.98,9,5,24,0.00
2013-5-17,88.8,78.7,72.6,69.7,65.0,59.1,84,64,39,30.03,29.94,10,5,26,0.21
2013-5-18,81.7,77.1,69.2,73.0,67.2,59.6,83,72,58,30.00,29.93,9,4,18,0.00
2013-5-19,80.9,77.4,73.7,71.4,69.9,68.2,84,78,71,29.98,29.88,7,3,11,0.00
2013-5-20,81.2,78.9,70.4,70.2,69.0,64.3,81,72,65,29.94,29.89,10,6,11,0.00
2013-5-21,80.9,78.0,69.4,71.0,68.0,61.1,75,71,67,29.99,29.91,8,5,12,0.00
2013-5-22,83.0,78.4,72.0,71.8,67.6,62.8,75,70,58,30.02,29.93,8,3,11,0.00
2013-5-23,83.2,79.1,71.8,73.2,69.4,62.3,78,73,64,30.01,29.95,5,3,11,0.00